Location: Madrid
(40.4000°N, 3.6830°W)
Time: 08:42:25
(UTC+02:00)

ISS - Pass Details

Date: 19 July 2017
Orbit: 400 x 408 km, 51.6° (Epoch: 21 July)

Event Time Altitude Azimuth Distance (km) Brightness Sun altitude
Exits shadow 03:43:35 - 318° (NW) 1,538 -0.6 -25.8°
Reaches altitude 10° 03:44:00 10° 325° (NW) 1,454 -0.7 -25.8°
Maximum altitude 03:45:29 13° 352° (N) 1,313 -0.5 -25.7°
Drops below altitude 10° 03:46:59 10° 19° (NNE) 1,456 0.0 -25.6°
Sets 03:50:03 0° 51° (NE) 2,318 1.0 -25.4°
